User: anonymous   Login
Location: Vancouver
(49.2500°N, 123.1330°W)
Time: 21:34:14
(UTC-07:00)
Language:

SO-67 - Orbit

View from above orbital plane
View from above orbital plane
View from above satellite
View from above satellite

Ground track
Ground track

The orbit data is extracted from the following two-line orbital elements,

1 35870U 09049F   16147.88019770  .00006011  00000-0  11459-3 0  9995
2 35870  97.1198 163.0459 0003164  80.3308  40.3158 15.48538806373343
Epoch (UTC): 26 May 2016 21:07:29
Eccentricity: 0.0003164
inclination: 97.1198°
perigee height: 419 km
apogee height: 423 km
right ascension of ascending node: 163.0459°
argument of perigee: 80.3308°
revolutions per day: 15.48538806
mean anomaly at epoch: 40.3158°
orbit number at epoch: 37334

The dashed part of the orbit path shows where the satellite is in the earth's shadow,  

DLR